Date String (YYYY-MM-DD hh:mm:ss) UTC,Instrument flags,Ambient pressure (hPa),Sample flow (lpm),Bypass flow (lpm),Sample temperature (°C),Ambient temperature (°C),ASC tube jacket temperature (°C),LED temperature (°C),Box temperature (°C),Sample RH (%),Span deviation,Mass concentration (μg/m³),Mass concentration (μg/m³),Mass concentration (μg/m³)
DateTimeUTC,F1_M11,P_M11,Q1_M11,Q2_M11,T1_M11,T2_M11,T3_M11,T4_M11,T5_M11,U1_M11,ZSPAN_M11,X0_M11,X2_M11,X1_M11
2023-03-10 05:00:00,,0825.9,5.00,0.00,22.1,20.4,00.0,30.9,23.8,16.3,-001.9,0020.30,0012.07,0011.46
2023-03-10 05:01:00,,0825.9,5.00,0.00,22.1,20.3,00.0,30.9,23.8,16.3,-001.9,0019.57,0012.09,0011.49
2023-03-10 05:02:00,,0825.9,4.99,0.00,22.1,20.3,00.0,30.8,23.8,16.4,-002.1,0019.94,0012.13,0011.54
2023-03-10 05:03:00,,0825.9,5.00,0.00,22.1,20.2,00.0,30.8,23.8,16.4,-001.9,0020.21,0012.24,0011.62
2023-03-10 05:04:00,,0825.9,5.00,0.00,22.0,20.2,00.0,30.8,23.8,16.5,-001.9,0020.01,0012.50,0011.83
2023-03-10 05:05:00,,0825.9,5.01,0.00,22.0,20.2,00.0,30.8,23.8,16.5,-001.8,0020.32,0012.80,0012.11
2023-03-10 05:06:00,,0825.9,5.00,0.00,22.0,20.2,00.0,30.8,23.8,16.5,-001.6,0020.55,0013.03,0012.33
2023-03-10 05:07:00,,0825.9,5.03,0.00,22.0,20.2,00.0,30.8,23.7,16.4,-001.4,0020.98,0013.26,0012.50
2023-03-10 05:08:00,,0825.9,4.96,0.00,22.0,20.1,00.0,30.8,23.7,16.2,-001.4,0021.25,0013.36,0012.63
2023-03-10 05:09:00,,0825.9,4.97,0.00,22.0,20.8,00.0,30.7,23.8,16.1,-001.5,0020.33,0013.52,0012.75
2023-03-10 05:10:00,,0825.9,4.99,0.00,22.1,21.9,00.0,30.7,24.1,15.9,-001.5,0019.79,0013.64,0012.89
2023-03-10 05:11:00,,0825.9,5.01,0.00,22.2,22.8,00.0,30.8,24.3,15.8,-001.3,0019.88,0013.78,0013.03
2023-03-10 05:12:00,,0825.9,5.01,0.00,22.3,22.5,00.0,30.8,24.3,15.8,-001.3,0019.98,0013.91,0013.16
2023-03-10 05:13:00,,0825.8,5.01,0.00,22.3,22.1,00.0,30.9,24.3,15.7,-001.2,0019.77,0013.96,0013.24
2023-03-10 05:14:00,,0825.7,5.00,0.00,22.3,21.8,00.0,30.9,24.2,15.8,-001.1,0019.66,0013.96,0013.25
2023-03-10 05:15:00,,0825.9,5.00,0.00,22.3,21.5,00.0,30.9,24.1,15.8,-000.9,0019.52,0013.84,0013.16
2023-03-10 05:16:00,,0825.7,5.01,0.00,22.3,21.2,00.0,30.9,24.1,15.9,-001.1,0019.24,0013.63,0012.96
2023-03-10 05:17:00,,0825.7,4.99,0.00,22.3,21.0,00.0,30.9,24.1,15.9,-000.8,0019.00,0013.42,0012.75
2023-03-10 05:18:00,,0825.7,5.00,0.00,22.3,20.9,00.0,30.9,24.0,15.9,-000.5,0018.70,0013.24,0012.58
2023-03-10 05:19:00,,0825.6,5.01,0.00,22.3,20.7,00.0,30.9,24.0,15.8,-000.6,0018.11,0013.09,0012.44
2023-03-10 05:20:00,,0825.6,5.01,0.00,22.2,20.6,00.0,30.9,24.0,15.7,-000.3,0017.90,0012.95,0012.32
2023-03-10 05:21:00,,0825.6,5.00,0.00,22.2,20.6,00.0,30.9,23.9,15.7,-000.0,0018.12,0012.82,0012.16
2023-03-10 05:22:00,,0825.6,5.00,0.00,22.2,20.5,00.0,30.9,23.9,15.6,0000.0,0017.90,0012.64,0011.99
2023-03-10 05:23:00,,0825.6,5.00,0.00,22.2,20.5,00.0,30.9,23.9,15.5,-000.1,0017.71,0012.48,0011.81
2023-03-10 05:24:00,,0825.7,5.00,0.00,22.2,20.4,00.0,30.9,23.9,15.5,-000.2,0017.66,0012.40,0011.70
2023-03-10 05:25:00,,0825.6,5.00,0.00,22.2,20.4,00.0,30.9,23.9,15.5,-000.3,0018.13,0012.31,0011.59
2023-03-10 05:26:00,,0825.6,5.01,0.00,22.1,20.4,00.0,30.9,23.8,15.5,-000.2,0018.19,0012.22,0011.50
2023-03-10 05:27:00,,0825.5,5.00,0.00,22.1,20.3,00.0,30.9,23.8,15.6,0000.4,0018.16,0012.17,0011.43
2023-03-10 05:28:00,,0825.6,4.99,0.00,22.1,20.3,00.0,30.9,23.8,15.7,-000.0,0018.14,0012.10,0011.33
2023-03-10 05:29:00,,0825.6,5.00,0.00,22.1,20.2,00.0,30.9,23.8,15.8,-000.2,0017.98,0012.02,0011.27
2023-03-10 05:30:00,,0825.6,5.00,0.00,22.1,20.2,00.0,30.9,23.7,15.9,-000.3,0018.16,0011.99,0011.23
2023-03-10 05:31:00,,0825.5,5.01,0.00,22.1,20.9,00.0,30.8,23.9,16.0,-000.3,0017.89,0011.87,0011.12
2023-03-10 05:32:00,,0825.5,4.97,0.00,22.2,22.1,00.0,30.8,24.2,16.0,-000.3,0017.28,0011.70,0010.98
2023-03-10 05:33:00,,0825.5,5.00,0.00,22.3,22.8,00.0,30.9,24.3,16.0,-000.6,0016.96,0011.50,0010.82
2023-03-10 05:34:00,,0825.5,4.97,0.00,22.4,22.5,00.0,30.9,24.3,16.0,-000.8,0017.15,0011.29,0010.63
2023-03-10 05:35:00,,0825.5,5.00,0.00,22.4,22.0,00.0,30.9,24.2,16.0,-000.7,0016.65,0011.01,0010.39
2023-03-10 05:36:00,,0825.4,5.00,0.00,22.4,21.6,00.0,31.0,24.1,16.1,-000.5,0015.80,0010.75,0010.16
2023-03-10 05:37:00,,0825.5,4.99,0.00,22.3,21.2,00.0,31.0,24.1,16.1,-000.7,0015.68,0010.43,0009.86
2023-03-10 05:38:00,,0825.4,5.01,0.00,22.3,21.0,00.0,31.0,24.0,16.2,-001.0,0015.82,0010.12,0009.56
2023-03-10 05:39:00,,0825.4,5.00,0.00,22.3,20.7,00.0,31.0,24.0,16.3,-001.1,0015.66,0009.89,0009.35
2023-03-10 05:40:00,,0825.4,5.00,0.00,22.2,20.6,00.0,31.0,23.9,16.4,-001.1,0015.39,0009.66,0009.14
2023-03-10 05:41:00,,0825.4,5.00,0.00,22.2,20.4,00.0,31.0,23.9,16.5,-001.1,0015.71,0009.50,0008.96
2023-03-10 05:42:00,,0825.4,5.00,0.00,22.2,20.3,00.0,31.0,23.9,16.6,-001.0,0015.41,0009.31,0008.76
2023-03-10 05:43:00,,0825.5,5.00,0.00,22.2,20.3,00.0,30.9,23.8,16.6,-001.0,0015.34,0009.20,0008.63
2023-03-10 05:44:00,,0825.4,5.01,0.00,22.1,20.2,00.0,30.9,23.8,16.7,-000.7,0015.25,0009.10,0008.53
2023-03-10 05:45:00,,0825.4,5.00,0.00,22.1,20.2,00.0,30.9,23.8,16.7,-000.6,0015.18,0009.03,0008.46
2023-03-10 05:46:00,,0825.3,5.00,0.00,22.1,20.2,00.0,30.9,23.8,16.8,-000.4,0014.94,0008.97,0008.40
2023-03-10 05:47:00,,0825.3,5.00,0.00,22.1,20.1,00.0,30.9,23.7,16.9,-000.4,0014.95,0009.00,0008.40
2023-03-10 05:48:00,,0825.3,5.00,0.00,22.0,20.1,00.0,30.9,23.7,17.0,-000.4,0014.59,0009.03,0008.43
2023-03-10 05:49:00,,0825.3,5.00,0.00,22.0,20.1,00.0,30.9,23.7,17.0,-000.4,0014.04,0009.09,0008.47
2023-03-10 05:50:00,,0825.3,5.00,0.00,22.0,20.0,00.0,30.8,23.7,17.0,-000.5,0014.14,0009.13,0008.48
2023-03-10 05:51:00,,0825.3,5.00,0.00,22.0,20.0,00.0,30.8,23.7,17.1,-001.0,0014.32,0009.14,0008.48
2023-03-10 05:52:00,,0825.4,5.00,0.00,21.9,20.0,00.0,30.8,23.7,17.0,-000.7,0013.69,0009.16,0008.53
2023-03-10 05:53:00,,0825.4,5.01,0.00,22.0,21.0,00.0,30.8,23.9,16.7,-001.0,0013.64,0009.25,0008.62
2023-03-10 05:54:00,,0825.4,5.00,0.00,22.1,22.2,00.0,30.8,24.1,16.5,-001.4,0013.65,0009.27,0008.64
2023-03-10 05:55:00,,0825.4,4.99,0.00,22.2,22.7,00.0,30.8,24.3,16.4,-001.3,0013.65,0009.25,0008.64
2023-03-10 05:56:00,,0825.3,5.00,0.00,22.3,22.3,00.0,30.9,24.2,16.2,-001.0,0013.34,0009.24,0008.61
2023-03-10 05:57:00,,0825.2,5.00,0.00,22.3,21.8,00.0,30.9,24.1,16.2,-000.8,0013.31,0009.20,0008.56
2023-03-10 05:58:00,,0825.2,5.00,0.00,22.3,21.5,00.0,30.9,24.1,16.3,-000.7,0013.20,0009.08,0008.46
2023-03-10 05:59:00,,0825.2,5.00,0.00,22.2,21.1,00.0,30.9,24.0,16.4,-000.6,0013.19,0008.98,0008.34
